User: anonymous
Location: Caltech
(34.1382°N, 118.1253°W)
Time: 06:31:03
(UTC-07:00)
Language:

Iridium 70 - Orbit

View from above orbital plane
View from above orbital plane
View from above satellite
View from above satellite

Ground track
Ground track

The orbit data is extracted from the following two-line orbital elements,

1 25342U 98032A   14211.40987816  .00000256  00000-0  84231-4 0  8927
2 25342 086.3986 304.2425 0002282 113.8703 294.9866 14.34217731848204
Epoch (UTC): 30 July 2014 09:50:13
Eccentricity: 0.0002282
inclination: 86.3986°
perigee height: 776 km
apogee height: 779 km
right ascension of ascending node: 304.2425°
argument of perigee: 113.8703°
revolutions per day: 14.34217731
mean anomaly at epoch: 294.9866°
orbit number at epoch: 84820

The dashed part of the orbit path shows where the satellite is in the earth's shadow,  

DLR